Location: Agus-us
(14.2247°N, 120.8593°E)
Time: 18:05:29
(UTC+00:00)

Cosmos 2151 - Pass Details

Date: 13 December 2025
Orbit: 559 x 575 km, 82.5° (Epoch: 20 January)

Event Time Altitude Azimuth Distance (km) Brightness Sun altitude
Rises 21:18:44 0° 175° (S) 2,732 6.7 -12.8°
Reaches altitude 10° 21:20:56 10° 171° (S) 1,839 5.9 -12.3°
Maximum altitude 21:24:53 54° 93° (E) 679 3.7 -11.4°
Drops below altitude 10° 21:28:51 10° 16° (NNE) 1,846 5.4 -10.5°
Sets 21:31:03 0° 11° (NNE) 2,744 6.3 -10.0°
